Fairbanks, AK

2:57 AM AKDT on September 21, 2017 (GMT -0800)
Fairbanks International

Weather History for PAFA - April, 2014

Change the Weather History Date:

Tuesday, April 22, 2014

  Actual Average Record
Temperature  
Mean Temperature 47 °F 38 °F  
Max Temperature 55 °F 49 °F 65 °F (1940)
Min Temperature 38 °F 26 °F -20 °F (1924)
Degree Days  
Heating Degree Days 18 27  
Month to date heating degree days 768 776  
Since 1 July heating degree days 11736 12826  
Cooling Degree Days 0 0  
Month to date cooling degree days 0 0  
Year to date cooling degree days 0 0  
Moisture  
Dew Point 26 °F    
Average Humidity 46    
Maximum Humidity 62    
Minimum Humidity 23    
Precipitation  
Precipitation 0.00 in 0.01 in 0.61 in (1941)
Month to date precipitation 0.20 0.20  
Year to date precipitation 1.03 1.45  
Snow  
Snow 0.00 in 0.10 in 2.90 in (1941)
Month to date snowfall 2.9 2.4  
Since 1 July snowfall 48.9 63.6  
Snow Depth T in    
Sea Level Pressure  
Sea Level Pressure 29.88 in    
Wind  
Wind Speed 10 mph (North)    
Max Wind Speed 14 mph    
Max Gust Speed -    
Visibility 10 miles    
Events      
T = Trace of Precipitation, MM = Missing Value Source: NWS Daily Summary

Daily Weather History Graph

Daily Weather History Graph

Search for Another Location

Airport or City:

Trip Planner

Search our weather history database for the weather conditions in past years. The results will help you decide how hot, cold, wet, or windy it might be!

Date:

Astronomy

Apr. 22, 2014 Rise Set
Actual Time 5:50 AM AKDT 9:51 PM AKDT
Civil Twilight 4:47 AM AKDT 10:55 PM AKDT
Nautical Twilight 2:53 AM AKDT 12:57 AM AKDT
Astronomical Twilight Sun does not set Sun does not set
Moon 4:21 AM AKDT (4/22) 12:34 PM AKDT (4/22)
Length of Visible Light 18h 07m
Length of Day
16h 01m
Last Quarter, 44% of the Moon is Illuminated
Apr 22
Last Quarter
Apr 28
New
May 6
First Quarter
May 14
Full
May 21
Last Quarter

Hourly Weather History & Observations

Time (AKDT) Temp. Windchill Dew Point Humidity Pressure Visibility Wind Dir Wind Speed Gust Speed Precip Events Conditions
12:53 AM 41.0 °F 34.3 °F 26.1 °F 55% 29.94 in 10.0 mi North 11.5 mph - N/A   Mostly Cloudy
1:53 AM 41.0 °F 34.3 °F 26.1 °F 55% 29.94 in 10.0 mi North 11.5 mph - N/A   Mostly Cloudy
2:53 AM 41.0 °F 34.3 °F 26.1 °F 55% 29.94 in 10.0 mi North 11.5 mph - N/A   Mostly Cloudy
3:53 AM 39.9 °F 33.4 °F 26.1 °F 58% 29.94 in 10.0 mi North 10.4 mph - N/A   Mostly Cloudy
4:53 AM 41.0 °F 34.7 °F 25.0 °F 53% 29.93 in 10.0 mi North 10.4 mph - N/A   Mostly Cloudy
5:53 AM 39.9 °F 33.9 °F 26.1 °F 58% 29.93 in 10.0 mi North 9.2 mph - N/A   Mostly Cloudy
6:53 AM 39.9 °F 33.9 °F 26.1 °F 58% 29.93 in 10.0 mi North 9.2 mph - N/A   Mostly Cloudy
7:53 AM 39.0 °F 34.0 °F 27.0 °F 62% 29.93 in 10.0 mi NNE 6.9 mph - N/A   Mostly Cloudy
8:53 AM 41.0 °F 37.1 °F 28.0 °F 60% 29.93 in 10.0 mi NNE 5.8 mph - N/A   Mostly Cloudy
9:53 AM 45.0 °F 42.6 °F 26.1 °F 48% 29.92 in 10.0 mi NNE 4.6 mph - N/A   Mostly Cloudy
10:53 AM 46.0 °F 43.9 °F 28.0 °F 50% 29.91 in 10.0 mi NE 4.6 mph - N/A   Scattered Clouds
11:53 AM 48.0 °F - 25.0 °F 41% 29.90 in 10.0 mi Variable 3.5 mph - N/A   Scattered Clouds
12:53 PM 52.0 °F - 25.0 °F 35% 29.89 in 10.0 mi NNW 3.5 mph - N/A   Scattered Clouds
1:53 PM 54.0 °F - 26.1 °F 34% 29.87 in 10.0 mi Calm Calm - N/A   Partly Cloudy
2:53 PM 55.0 °F - 28.0 °F 35% 29.86 in 10.0 mi NNE 10.4 mph - N/A   Scattered Clouds
3:53 PM 54.0 °F - 27.0 °F 35% 29.84 in 10.0 mi North 13.8 mph - N/A   Scattered Clouds
4:53 PM 54.0 °F - 27.0 °F 35% 29.82 in 10.0 mi North 12.7 mph - N/A   Scattered Clouds
5:53 PM 54.0 °F - 27.0 °F 35% 29.81 in 10.0 mi North 13.8 mph - N/A   Scattered Clouds
6:53 PM 53.1 °F - 28.0 °F 38% 29.80 in 10.0 mi NNE 11.5 mph - N/A   Partly Cloudy
7:53 PM 51.1 °F - 28.0 °F 41% 29.80 in 10.0 mi NNE 9.2 mph - N/A   Partly Cloudy
8:53 PM 48.0 °F - 26.1 °F 42% 29.80 in 10.0 mi NNE 11.5 mph - N/A   Partly Cloudy
9:53 PM 43.0 °F 37.2 °F 25.0 °F 49% 29.80 in 10.0 mi North 10.4 mph - N/A   Partly Cloudy
10:53 PM 41.0 °F 34.7 °F 24.1 °F 51% 29.80 in 10.0 mi North 10.4 mph - N/A   Partly Cloudy
11:53 PM 39.0 °F 31.4 °F 24.1 °F 55% 29.80 in 10.0 mi North 12.7 mph - N/A   Partly Cloudy